NOAA 16 DEB, 41429

Orbit data source: Space-Track

NOAA 16 DEB, 41429 is space debris in SSO originally from a launch on Thu, 21 Sep 2000 UTC launched from the Air Force Western Test Range (AFWTR). Debris objects in space refer to the collection of defunct objects orbiting the Earth. Examples of debris include non-operational satellites, rocket bodies, and fragments generated from explosions, collisions, or faulty payload assembly.

Loading next visibility...
Identifier
41429, 2000-055LJ
Orbit
SSO
Last TLE update
2 days ago
Origin
Manufacturer
Unknown
Mission
Spacecraft
Bus & Motor
Unknown
Mass
Unknown
Launch date (UTC)
2000-09-21 (25 years ago)
Launch vehicle
Unknown
Launch site
Air Force Western Test Range (AFWTR)
Object type
Payload
Rocket body
Debris
Shape & HBR
Unknown
Radar Cross Section
Small (<0.1 m²)

Expand to show TLE details & history

TLE from 2 days ago
0 NOAA 16 DEB
1 41429U 00055LJ  25181.17144098  .00002395  00000-0  10016-2 0  9990
2 41429  98.7243 263.0312 0014647 287.9467  72.0116 14.26981141482836
Epoch: 2025-06-30T04:06Z
TLE epoch observation values (Epoch: 2025-06-30T04:06:52.5Z)
Latitude
-0.00007°
Longitude
-77.17261°
Altitude
801.528 km
Speed
7.454 km/s
True Right ascension
17h 32m 07s
True Declination
0° 00' 00"
Sunlit
Object was in full shadow at epoch
Visualization orbit readout
Latitude
-22.27644°
Longitude
101.30903°
Altitude
808.254 km
Speed
7.449 km/s
Apparent Right ascension
05h 29m 10s
Apparent Declination
-30° 24' 48"
Sunlit
Object is in daylight
Visualization observer readout
Local Sidereal Time
17:33:25
Azimuth
5.531° NNE
Elevation
-80.458°
Doppler factor
1
Orbital elements
Apogee altitude
809.502 km
Perigee altitude
788.477 km
Semi-major axis
7,177.126 km
Eccentricity
0.00146
Inclination
98.7243°
RAAN
263.0312°
Arg. of periapsis
287.9467°
True anomaly
Unknown
Mean anomaly
72.0116°
Eccentric anomaly
Unknown
Mean motion
3.56958 °/min
Orbital period
100.85 mins
BSTAR
0.0010016
Loading maneuver chart data...
Loading SW <> Apogee altitude chart data...
Loading historical data...
Loading historical data...
Loading historical data...
Loading historical data...
Loading historical data...
Loading historical data...
Loading historical data...

NOAA 16 DEB Visibility forecast

Observer location: undefined°, undefined°

Span
Click to sort rows by Start time (UTC) header in descending order
Start Az.
Max El. time (UTC)
Max El. Az.
Max El.
End time (UTC)
End Az.
6 mins2025-07-02 06:43:47.059Z231.853° WSW2025-07-02 06:46:47.059Z269.409° W16.545°2025-07-02 06:49:47.059Z305.852° NW
6 mins2025-07-02 17:18:47.059Z55.588° ENE2025-07-02 17:21:47.059Z98.359° ESE20.33°2025-07-02 17:24:47.059Z137.624° SSE
8 mins2025-07-02 18:57:47.059Z354.13° N2025-07-02 19:01:47.059Z276.489° WNW34.78°2025-07-02 19:05:47.059Z221.039° SW
7 mins2025-07-03 04:37:47.059Z117.209° SE2025-07-03 04:40:47.059Z65.593° ENE28.322°2025-07-03 04:44:47.059Z9.001° NNE
|